Wind_Speed
19 22 21 21 22 21 22 22 23 25 23 27 33 48 42 30 28 28 24 21 26 26 25 24 23 23 27 31 34 36 40 36 37 38 41 42 43 41 44 44 43 43 45 45
29 29 22 20 23 24 22 23 23 22 14 22 29 53 43 34 22 19 20 18 23 25 21 20 18 18 16 27 35 39 41 43 42 41 40 44 43 44 45 45 47 46 46 45
29 17 18 14 15 15 17 18 18 23 25 23 28 52 35 2 18 14 19 17 12 20 32 25 23 19 27 43 32 38 41 46 46 45 44 44 50 50 49 46 45 48 48 45
26 28 29 26 25 20 23 19 21 18 15 16 7 22 58 10 9 20 15 11 25 38 38 42 44 43 45 36 30 33 38 44 44 46 50 49 47 53 51 49 46 48 47 47
19 22 20 18 21 20 24 13 10 12 18 25 14 14 54 34 32 18 25 32 39 45 47 50 50 50 47 40 31 32 34 38 42 41 46 51 50 45 53 52 55 49 46 49
23 16 16 12 9 11 11 7 11 13 15 14 16 22 48 36 25 24 35 37 37 45 50 53 57 55 50 43 36 39 41 42 40 38 41 47 52 46 47 54 55 53 49 48
18 17 14 16 11 11 13 9 5 8 9 10 8 14 32 32 32 34 29 27 33 38 49 53 56 59 60 55 47 37 38 40 50 47 43 40 44 46 45 47 53 53 49 49
19 10 13 16 12 10 11 11 8 9 12 15 26 18 26 26 33 28 31 38 41 40 43 43 44 46 48 50 48 47 43 41 43 45 41 42 43 43 45 47 46 51 50 48
11 9 13 16 14 11 8 10 9 13 24 22 27 28 35 29 20 24 29 34 40 41 35 38 38 38 41 43 43 44 43 39 43 49 46 45 47 48 46 48 47 47 49 51
12 8 13 12 9 11 9 10 7 10 5 14 17 18 22 26 25 25 30 32 35 34 37 38 35 37 41 40 37 37 38 38 40 47 47 49 48 48 50 47 46 47 50 51
11 8 7 13 9 11 10 12 10 11 17 10 15 25 22 21 28 33 36 38 35 36 37 37 38 37 40 37 41 33 32 44 45 45 46 44 48 51 51 46 42 47 49 52
9 4 8 9 11 17 13 14 18 12 7 10 6 32 34 28 25 27 33 35 36 39 37 38 38 38 35 42 42 44 32 32 47 51 45 42 40 41 36 38 38 42 44 50
11 7 4 8 4 7 8 10 12 14 14 18 18 21 26 26 32 32 34 36 37 38 37 42 38 41 37 45 45 44 44 37 30 36 40 35 35 32 28 29 29 33 37 41
13 13 12 13 6 6 13 12 12 13 13 23 31 33 37 33 34 33 37 37 36 36 36 39 42 43 42 38 39 33 43 39 38 18 21 25 27 26 29 26 27 31 36 39
16 12 14 19 17 17 22 23 20 25 27 28 36 37 39 36 34 36 35 38 41 42 42 40 43 51 50 42 36 34 32 36 31 30 11 16 22 22 25 28 29 31 33 34
17 11 13 19 17 19 24 23 26 27 27 30 33 39 32 32 34 37 36 36 42 43 39 38 43 47 54 45 42 37 32 24 26 29 20 10 17 22 24 24 24 25 23 24
17 12 10 16 12 12 17 24 26 24 23 22 29 34 31 36 35 32 35 37 37 38 46 48 46 42 49 51 42 38 28 22 21 16 20 19 12 13 18 23 17 17 19 20
13 13 12 7 6 9 17 18 16 16 21 21 26 28 30 31 34 33 33 30 37 43 48 49 48 42 44 44 40 36 26 21 18 14 11 13 8 9 20 23 12 15 20 18
13 14 7 8 14 18 23 21 16 14 23 21 22 20 21 27 31 29 26 30 47 50 40 41 40 37 37 34 34 34 26 25 17 13 10 8 5 2 13 21 9 10 14 14
16 18 14 11 6 7 8 8 13 13 23 7 11 16 26 29 33 31 35 45 45 28 34 36 33 29 29 28 32 32 23 26 20 13 14 11 8 8 7 15 14 15 15 15
17 17 23 20 16 18 18 17 16 14 14 12 19 25 27 29 31 38 39 41 33 37 40 26 24 29 25 27 29 28 26 28 27 21 17 15 13 11 10 11 12 15 15 18
14 12 11 15 19 20 17 14 21 19 18 25 25 26 31 38 39 39 40 46 33 38 35 23 22 23 26 29 30 32 31 26 29 28 20 16 16 15 13 16 15 13 11 17
14 17 11 15 21 19 16 22 20 24 28 29 29 30 34 38 38 37 35 39 34 35 33 26 21 18 23 23 24 27 26 29 31 30 21 20 18 16 15 13 12 14 12 15
14 14 18 17 29 27 29 30 30 28 30 30 30 32 37 37 39 36 33 30 32 31 30 26 21 20 24 22 15 17 15 26 33 33 28 20 18 16 17 20 20 13 15 14
15 15 16 25 28 27 30 29 29 29 30 31 32 31 34 35 38 33 29 28 23 25 26 29 26 22 18 16 13 9 15 7 13 20 18 22 23 16 12 11 13 14 15 13
20 25 24 30 25 26 35 29 28 32 33 33 33 37 34 35 34 30 26 23 19 23 24 26 25 19 16 7 12 12 10 13 10 2 7 8 11 13 14 16 17 16 16 19
Wind_Direction
246 259 245 253 251 257 270 272 274 278 286 287 287 291 294 298 296 297 300 310 319 321 324 317 303 286 273 263 259 256 257 256 254 254 253 253 243 240 239 241 243 241 245 245
259 258 254 252 255 262 261 264 270 281 285 296 294 287 291 299 293 315 314 316 320 317 305 300 292 283 297 289 265 255 256 256 253 255 257 249 245 243 240 244 241 243 245 246
248 249 250 246 245 251 254 256 264 276 286 284 293 289 298 264 305 314 321 313 311 291 308 302 287 267 290 301 292 274 264 259 256 253 252 252 243 239 238 239 243 244 247 248
255 250 244 249 251 254 259 264 269 275 284 278 300 297 290 292 303 320 319 290 280 298 296 294 291 283 285 291 282 274 266 263 261 257 255 251 253 244 241 237 241 244 246 246
247 255 253 239 249 242 258 247 248 256 271 289 270 252 279 290 304 303 279 286 296 301 302 301 300 299 299 294 277 269 271 271 265 257 254 251 253 251 245 240 239 243 248 250
229 232 232 221 228 211 220 247 261 261 263 264 275 244 273 297 313 304 300 304 302 301 301 299 299 298 295 291 283 278 273 266 267 266 260 255 251 254 247 244 239 239 241 246
210 229 231 223 206 221 224 237 254 232 200 249 255 250 255 288 290 293 311 320 317 315 309 308 305 302 299 295 288 277 270 269 269 266 261 256 256 257 251 248 242 235 240 245
189 190 198 218 194 198 175 201 241 262 269 284 282 269 268 286 280 288 294 296 302 305 303 312 316 312 303 297 289 279 270 268 266 263 262 259 256 252 250 245 247 238 238 242
180 182 189 178 174 177 208 229 240 267 272 270 261 271 275 253 286 295 301 312 313 317 313 316 319 316 314 302 291 283 270 266 263 258 249 251 256 256 250 246 245 243 233 241
184 155 189 210 224 248 222 219 233 218 262 264 263 269 266 286 304 315 315 316 316 320 320 314 318 314 305 309 299 278 266 256 250 253 255 257 247 250 248 244 239 240 228 234
188 194 194 202 232 241 232 253 238 241 248 263 276 266 272 287 307 308 308 302 308 307 309 309 304 308 304 313 309 311 275 255 258 261 259 258 248 244 247 245 238 231 230 232
212 210 195 228 238 256 247 240 223 225 216 240 260 264 282 292 300 303 305 305 300 293 299 299 301 297 306 305 300 311 318 323 252 252 257 256 251 250 248 244 232 226 226 232
216 214 193 176 193 205 214 221 221 227 246 249 252 261 285 292 293 297 303 303 303 304 305 302 304 308 292 293 300 313 312 335 318 242 251 247 245 241 238 229 224 223 224 231
215 225 230 254 304 253 248 246 228 233 246 259 257 276 286 291 297 296 301 299 304 303 307 308 305 307 307 297 294 305 309 305 305 279 230 231 242 250 247 231 222 225 232 238
210 230 243 261 267 260 262 260 247 249 256 258 277 280 283 290 292 291 298 300 298 299 307 305 302 305 306 311 310 305 305 297 304 330 252 222 226 231 234 227 227 228 228 231
223 249 251 267 272 261 260 259 257 260 267 270 274 277 290 289 288 296 298 301 304 305 307 303 298 299 303 308 318 305 303 283 303 308 354 256 228 208 211 209 215 217 207 208
224 223 249 267 255 252 268 265 266 267 266 273 277 285 291 292 293 297 303 306 307 301 302 298 299 299 300 307 316 302 295 275 290 300 325 337 264 224 196 169 173 190 199 214
209 205 207 246 219 242 267 254 263 269 276 280 283 286 289 297 304 303 302 299 303 305 301 300 298 295 294 305 314 299 284 266 268 280 279 329 310 218 189 177 179 203 207 213
201 196 204 223 237 266 277 267 254 267 281 282 283 290 297 304 309 310 311 303 312 310 300 302 294 288 292 300 306 291 277 268 245 259 263 254 259 303 209 189 183 180 193 185
218 204 211 206 236 249 280 232 269 286 285 259 302 303 306 307 303 309 311 320 316 317 304 298 287 282 285 290 293 291 274 263 253 229 232 228 222 212 191 199 201 183 178 187
191 211 224 232 242 268 263 257 260 241 268 284 302 306 307 305 302 307 319 322 322 326 320 309 290 281 284 292 291 289 277 261 246 231 215 212 208 195 183 184 184 196 194 194
199 195 215 231 245 262 271 234 229 268 267 298 302 300 303 308 310 315 321 319 329 327 326 317 310 289 287 294 297 300 270 250 234 228 214 199 209 209 206 206 207 213 214 212
221 217 231 225 243 246 252 261 275 280 280 291 296 299 303 305 310 312 321 326 326 325 332 321 309 286 289 296 289 296 262 253 226 223 210 197 200 202 207 200 197 208 218 215
232 238 242 253 273 263 266 269 274 275 277 286 288 293 296 302 304 309 317 321 318 323 334 336 312 296 292 296 301 298 282 236 211 203 194 190 187 189 192 194 200 192 199 212
238 250 260 258 280 286 275 273 274 276 278 281 282 285 292 297 295 308 310 314 314 323 342 340 334 297 291 322 344 315 20 243 236 173 192 191 191 195 188 180 182 192 198 203
259 261 251 263 284 278 278 276 274 278 279 280 280 280 281 283 290 302 299 298 307 316 332 342 340 333 309 335 329 359 5 352 12 260 211 193 188 210 206 203 202 208 216 215
Height
3098 3100 3100 3104 3102 3103 3103 3103 3102 3100 3100 3093 3086 3069 3076 3084 3086 3083 3081 3080 3081 3080 3080 3078 3077 3076 3074 3074 3074 3074 3073 3075 3075 3075 3075 3076 3077 3078 3080 3082 3085 3086 3088 3091
3093 3091 3096 3096 3097 3096 3096 3097 3097 3095 3093 3089 3083 3060 3069 3077 3078 3074 3073 3074 3073 3072 3072 3072 3070 3069 3068 3069 3066 3063 3063 3064 3063 3065 3067 3066 3068 3069 3071 3072 3074 3077 3079 3082
3086 3089 3085 3087 3089 3089 3090 3091 3093 3092 3089 3085 3079 3054 3063 3074 3072 3069 3069 3067 3065 3059 3061 3063 3063 3061 3059 3058 3057 3056 3055 3051 3053 3053 3052 3054 3054 3055 3058 3062 3064 3067 3070 3073
3077 3079 3079 3081 3082 3086 3086 3088 3088 3088 3087 3083 3081 3063 3036 3067 3067 3069 3062 3058 3052 3054 3053 3052 3050 3051 3051 3049 3047 3044 3042 3040 3040 3043 3042 3041 3041 3044 3048 3053 3056 3057 3061 3063
3071 3068 3072 3073 3076 3079 3080 3081 3083 3084 3083 3078 3080 3078 3032 3053 3058 3060 3050 3050 3048 3044 3040 3037 3037 3035 3036 3037 3037 3036 3033 3030 3028 3029 3028 3031 3030 3032 3036 3039 3042 3047 3051 3053
3066 3062 3066 3070 3068 3072 3074 3076 3078 3079 3079 3071 3072 3071 3037 3046 3051 3046 3044 3041 3037 3033 3030 3028 3025 3024 3023 3022 3023 3022 3021 3020 3016 3018 3017 3019 3019 3020 3021 3025 3029 3034 3037 3041
3056 3058 3059 3061 3064 3067 3069 3074 3072 3069 3068 3059 3059 3061 3049 3047 3041 3037 3035 3033 3030 3027 3020 3017 3015 3012 3009 3007 3007 3007 3006 3006 3005 3007 3004 3004 3007 3009 3009 3011 3014 3019 3024 3029
3049 3055 3054 3053 3059 3062 3063 3067 3067 3058 3053 3052 3050 3046 3042 3045 3037 3031 3029 3027 3026 3024 3018 3012 3005 3001 2996 2992 2991 2990 2991 2992 2992 2992 2991 2993 2994 2994 2995 2996 3001 3006 3013 3017
3044 3049 3050 3052 3052 3058 3060 3062 3063 3064 3060 3059 3047 3041 3036 3039 3032 3030 3027 3024 3018 3015 3012 3008 3001 2995 2988 2982 2978 2977 2974 2977 2977 2974 2974 2977 2980 2981 2983 2984 2985 2992 2998 3003
3039 3045 3047 3049 3051 3052 3054 3054 3059 3062 3057 3046 3035 3037 3029 3027 3026 3026 3025 3022 3016 3012 3008 3002 2996 2989 2983 2977 2968 2963 2961 2959 2959 2959 2959 2962 2963 2966 2969 2970 2971 2976 2981 2989
3035 3040 3045 3047 3048 3049 3050 3050 3053 3055 3053 3046 3039 3028 3029 3024 3024 3023 3019 3015 3011 3006 3000 2995 2990 2984 2974 2969 2963 2955 2947 2946 2946 2944 2941 2944 2949 2951 2954 2955 2959 2960 2967 2975
3032 3034 3039 3043 3042 3042 3041 3042 3043 3045 3045 3044 3042 3023 3025 3024 3021 3018 3015 3011 3005 2999 2992 2985 2979 2975 2970 2962 2957 2947 2939 2934 2932 2929 2930 2931 2935 2937 2942 2944 2946 2949 2955 2963
3027 3030 3035 3036 3040 3038 3036 3036 3036 3037 3039 3036 3036 3022 3023 3020 3015 3012 3007 3003 2997 2992 2985 2977 2969 2964 2961 2955 2948 2942 2933 2927 2917 2915 2918 2921 2925 2929 2930 2934 2937 2941 2947 2952
3022 3023 3026 3027 3029 3032 3032 3032 3030 3030 3030 3026 3019 3021 3018 3015 3010 3003 2999 2994 2988 2983 2977 2971 2962 2955 2952 2947 2941 2935 2929 2922 2911 2903 2904 2909 2913 2916 2919 2922 2927 2932 2937 2941
3014 3015 3017 3020 3024 3024 3023 3025 3026 3023 3018 3021 3013 3015 3009 3005 3001 2996 2990 2985 2977 2971 2967 2964 2956 2948 2943 2940 2934 2929 2923 2917 2910 2903 2896 2899 2903 2905 2909 2911 2916 2921 2927 2933
3007 3009 3013 3011 3014 3015 3014 3015 3016 3013 3012 3011 3011 3004 3004 2997 2993 2989 2983 2977 2969 2964 2959 2954 2946 2942 2935 2932 2926 2922 2915 2911 2904 2895 2889 2893 2893 2897 2901 2905 2908 2913 2920 2926
3002 3004 3008 3007 3010 3010 3006 3004 3004 3002 3004 3005 3002 2999 2994 2991 2985 2980 2973 2969 2965 2958 2950 2943 2938 2934 2928 2925 2920 2914 2910 2908 2904 2901 2894 2891 2884 2884 2892 2899 2905 2909 2917 2924
2994 3000 3005 3006 3009 3004 2998 2996 2996 2995 2994 2997 2992 2993 2990 2983 2977 2972 2969 2963 2956 2949 2940 2933 2927 2924 2921 2918 2914 2909 2907 2905 2903 2901 2900 2894 2891 2890 2893 2899 2904 2911 2917 2922
2993 2996 2998 3000 3002 2995 2992 2991 2993 2991 2986 2989 2986 2986 2983 2978 2970 2966 2963 2957 2949 2939 2932 2924 2918 2915 2913 2911 2909 2906 2901 2899 2899 2900 2899 2899 2896 2892 2896 2900 2906 2910 2915 2920
2990 2991 2995 2997 2998 2989 2984 2985 2988 2987 2981 2982 2980 2979 2975 2971 2962 2959 2953 2947 2938 2930 2923 2915 2910 2909 2907 2905 2903 2901 2896 2894 2895 2895 2898 2899 2899 2898 2900 2904 2908 2913 2917 2922
2985 2988 2988 2991 2989 2981 2980 2984 2984 2984 2980 2975 2975 2972 2968 2963 2958 2950 2945 2938 2932 2923 2914 2907 2903 2901 2900 2898 2894 2891 2891 2891 2892 2893 2893 2895 2897 2899 2901 2905 2909 2913 2917 2922
2978 2979 2983 2985 2985 2980 2975 2978 2976 2972 2970 2969 2968 2965 2958 2953 2948 2944 2940 2933 2925 2917 2909 2903 2898 2895 2894 2892 2887 2885 2885 2886 2887 2889 2888 2892 2895 2897 2899 2903 2907 2912 2916 2920
2974 2972 2975 2978 2970 2970 2969 2969 2968 2965 2963 2963 2959 2954 2949 2945 2942 2938 2934 2929 2922 2914 2907 2900 2893 2891 2891 2888 2885 2880 2877 2880 2882 2884 2885 2888 2892 2894 2898 2901 2906 2912 2916 2919
2965 2967 2967 2971 2957 2959 2960 2962 2960 2958 2956 2953 2950 2945 2941 2939 2935 2932 2930 2926 2920 2913 2905 2897 2891 2887 2886 2885 2881 2878 2874 2870 2873 2875 2880 2885 2889 2895 2899 2901 2904 2910 2915 2918
2961 2962 2960 2956 2952 2953 2953 2953 2952 2949 2946 2942 2939 2937 2934 2932 2928 2927 2924 2921 2917 2911 2903 2895 2888 2882 2880 2880 2876 2875 2870 2871 2865 2869 2877 2881 2886 2891 2896 2901 2904 2909 2913 2916
2952 2951 2951 2943 2947 2947 2941 2944 2941 2936 2933 2931 2929 2926 2927 2925 2923 2921 2919 2916 2913 2909 2902 2897 2887 2881 2879 2878 2877 2874 2871 2872 2871 2873 2876 2880 2885 2890 2895 2899 2902 2906 2909 2911